Clermont County (I69)

 

Airport Diagram
No Airport Diagram Available
Current Weather/Forecast (MVFR Conditions)
METAR KI69 280415Z AUTO 34005KT 5SM -SN SCT008 SCT022 OVC060 M03/M05 A3033 RMK AO2 T10331046
TAF

Airport Information

All Charts
General
Chart Name View
TAKEOFF MINIMUMS
ALTERNATE MINIMUMS
TAKEOFF MINIMUMS
ALTERNATE MINIMUMS

Arrivals
Chart Name Download
BRUSH FOUR
BRUSH FOUR, CONT.1
CINCE NINE
HARDU FIVE
HARDU FIVE, CONT.1
HEDEE FOUR
HEDEE FOUR, CONT.1
SHELBYVILLE SIX
SHELBYVILLE SIX, CONT.1
BRUSH FOUR
BRUSH FOUR, CONT.1
CINCE NINE
HARDU FIVE
HARDU FIVE, CONT.1
HEDEE FOUR
HEDEE FOUR, CONT.1
SHELBYVILLE SIX
SHELBYVILLE SIX, CONT.1

Approaches
Chart Name Download
RNAV (GPS) RWY 04
RNAV (GPS) RWY 22
VOR-B
RNAV (GPS) RWY 04
RNAV (GPS) RWY 22
VOR-B


Airport Statistics
Departures Arrivals Local
All Collected Stats since June 2016: 18 6 1
2021 Stats: 3 1 0
January Stats: 3 1 0

Inbound Traffic (Arrivals) - 0

No inbound traffic.


Outbound Traffic (Departures) - 0

No outbound traffic.


Local Traffic (Pattern) - 0

No local traffic.